E9109 Weather Reports


Display with metric or nautical units.
time (UTC)temp
F
wind
direction
speed
MPH
gust
MPH
rain 1hr
in
rain 24hr
in
rain mn
in
humidity
%
barometer
mb
20260901160952 60 129 2.0 8.0 0.00 0.00 0.00 48 1009.3
20260901160012 60 143 3.0 8.0 0.00 0.00 0.00 45 1009.3
20260901155016 60 143 3.0 11.0 0.00 0.00 0.00 45 1009.3
20260901154022 60 132 3.0 11.0 0.00 0.00 0.00 41 1009.2
20260901153010 59 142 2.0 9.0 0.00 0.00 0.00 33 1009.2
20260901145725 59 142 3.0 10.0 0.00 0.00 0.00 27 1009.1
20260901144700 59 133 4.0 10.0 0.00 0.00 0.00 29 1009.0
20260901143654 59 126 3.0 10.0 0.00 0.00 0.00 29 1009.0
20260901142638 59 128 3.0 8.0 0.00 0.00 0.00 29 1009.0
20260901140232 59 153 2.0 8.0 0.00 0.00 0.00 32 1008.8
20260901134213 59 170 2.0 12.0 0.00 0.00 0.00 34 1008.4
20260901132005 60 127 2.0 11.0 0.00 0.00 0.00 41 1008.3
20260901131024 60 151 2.0 11.0 0.00 0.00 0.00 45 1008.3
20260901130013 60 143 2.0 10.0 0.00 0.00 0.00 48 1008.1
20260901125001 61 136 3.0 11.0 0.00 0.00 0.00 51 1008.0
20260901123946 61 146 2.0 11.0 0.00 0.00 0.00 53 1007.9
20260901122951 61 127 2.0 11.0 0.00 0.00 0.00 56 1007.9
20260901121928 62 150 3.0 8.0 0.00 0.00 0.00 58 1008.1
20260901120946 62 127 1.0 6.0 0.00 0.00 0.00 59 1008.2
20260901115920 62 138 1.0 7.0 0.00 0.00 0.00 60 1008.1
20260901114849 63 131 2.0 7.0 0.00 0.00 0.00 60 1008.1
20260901113843 63 153 0.0 11.0 0.00 0.00 0.00 60 1008.0
20260901112819 63 139 2.0 11.0 0.00 0.00 0.00 61 1008.0
20260901111748 63 140 1.0 8.0 0.00 0.00 0.00 61 1008.1
20260901110757 64 127 0.0 3.0 0.00 0.00 0.00 61 1008.0
20260901104615 64 162 0.0 6.0 0.00 0.00 0.00 62 1008.1
20260901103604 65 130 0.0 7.0 0.00 0.00 0.00 63 1008.0
20260901102537 65 136 0.0 1.0 0.00 0.00 0.00 63 1007.9
20260901101554 65 133 0.0 4.0 0.00 0.00 0.00 63 1008.0
20260901100616 65 137 0.0 0.0 0.00 0.00 0.00 63 1008.0
20260901095622 65 148 0.0 0.0 0.00 0.00 0.00 62 1008.0
20260901094622 65 148 0.0 0.0 0.00 0.00 0.00 62 1007.9
20260901093614 66 124 0.0 0.0 0.00 0.00 0.00 62 1007.9
20260901092612 66 144 0.0 4.0 0.00 0.00 0.00 61 1008.0
20260901090511 66 147 0.0 1.0 0.00 0.00 0.00 60 1007.8
20260901085503 66 131 0.0 0.0 0.00 0.00 0.00 59 1007.9
20260901083321 66 135 0.0 4.0 0.00 0.00 0.00 60 1008.0
20260901082342 65 141 0.0 2.0 0.00 0.00 0.00 60 1008.1
20260901080246 65 143 0.0 0.0 0.00 0.00 0.00 57 1008.1
20260901075234 65 133 0.0 0.0 0.00 0.00 0.00 57 1008.1
20260901074220 66 130 0.0 0.0 0.00 0.00 0.00 56 1008.0
20260901073244 66 131 0.0 3.0 0.00 0.00 0.00 56 1008.0
20260901072219 67 133 0.0 0.0 0.00 0.00 0.00 54 1007.9
20260901071243 66 148 0.0 3.0 0.00 0.00 0.00 56 1007.8